Tracking 19795 objects as of 20-Jul-2019
HD Live streaming from Space Station
objects crossing your sky now

METEOR 2-17 DEB

Track METEOR 2-17 DEB now!
10-day predictions


NORAD ID: 29302
Int'l Code: 1988-005R
Perigee: 892.5 km
Apogee: 922.4 km
Inclination: 82.5 °
Period: 103.0 minutes
Semi major axis: 7278 km
RCS: 0.0088 m2 (small)
Launch date: January 30, 1988
Source: Commonwealth of Independent States (former USSR) (CIS)
Launch site: PLESETSK MISSILE AND SPACE COMPLEX (PKMTR)

Note: This is SATELLITE DEBRIS
aabbcc
Your satellite tracking list
Your tracking list is empty




NASA's NSSDC Master Catalog

Two Line Element Set (TLE):
1 29302U 88005R   19197.15260803  .00000347  00000-0  23270-3 0  9990
2 29302  82.5425 121.9383 0020542  33.6127 326.6339 13.98116922672162
Source of the keplerian elements: AFSPC